[[{"header":{"parameterUnit":"m.s-1","parameterCategory":1,"la1":30.2991,"la2":30.254,"lo1":-89.0895,"lo2":-89.0444,"dy":0.0017,"dx":0.0017,"nx":28,"ny":28,"refTime":"2025-04-25T03:00:00:Z","depth":0,"parameterNumber":2,"parameterNumberName":"U-component_of_WINDS"},"data":[0,0,0,0,0,0,0,0,0,0,0,0,0,0,0,0,0,0,0,0,0,0,0,0,0,0,0,0,0,0,0,0,0,0,0,0,0,0,0,0,0,0,0,0,0,0,0,0,0,0,0,0,0,0,0,0,0,0,0.4255,0.4257,0,0.4386,0.4388,0.4389,0.4452,0.4452,0.4452,0.4452,0.4586,0.4589,0.4593,0,0,0,0,0,0,0,0,0,0,0,0,0,0.4058,0.4062,0.4255,0.4257,0.4258,0.4386,0.4388,0.439,0.4452,0.4452,0.4452,0.4452,0.4585,0.4589,0.4593,0,0,0,0,0,0,0,0,0,0,0,0,0,0.4162,0.4063,0.4255,0.4305,0.4311,0.4386,0.4388,0.439,0.4452,0.4452,0.4452,0.4452,0.4583,0.4588,0.4594,0.4629,0,0,0.461,0.4613,0,0,0,0,0,0,0,0,0.4156,0.4169,0.4296,0.4302,0.4308,0.4403,0.4368,0.447,0.4452,0.4398,0.4452,0.4452,0.4525,0.4535,0.456,0.4635,0.4641,0.4611,0.4614,0.4616,0.4618,0,0,0,0,0,0,0,0.4149,0.4164,0.4307,0.4298,0.4305,0.4321,0.4335,0.4387,0.446,0.4403,0.4408,0.4423,0.4528,0.4554,0.4563,0.4643,0.4611,0.4616,0.4619,0.4621,0.4752,0.4752,0,0,0,0,0,0,0.4133,0.4157,0.4303,0.4311,0.423,0.4324,0.4341,0.4372,0.446,0.4473,0.4422,0.4425,0.4545,0.4557,0.4568,0.4615,0.4616,0.4622,0.4625,0.4752,0.4752,0.4752,0,0,0,0,0,0,0.4129,0.4146,0.4298,0.4236,0.4256,0.4328,0.4363,0.4375,0.4401,0.4475,0.4488,0.4436,0.4546,0.4561,0.4613,0.462,0.4624,0.4629,0.4752,0.4752,0.4752,0.4708,0,0,0,0,0,0,0.4123,0.4144,0.4158,0.4235,0.4259,0.434,0.4363,0.4378,0.4411,0.4415,0.4491,0.4503,0.4547,0.4605,0.4618,0.4628,0.4633,0.4751,0.4752,0.4752,0.4709,0.4706,0.4704,0,0,0,0,0,0.4116,0.4141,0.4159,0.4176,0.4279,0.4341,0.4354,0.4404,0.4411,0.4426,0.4473,0.4501,0.4617,0.4609,0.4626,0.4637,0.4751,0.4752,0.4752,0.471,0.4707,0.4704,0,0,0,0,0,0,0.4062,0.4152,0.4173,0.4223,0.4274,0.4351,0.4371,0.4399,0.4449,0.4451,0.451,0.4527,0.4573,0.461,0.46,0.4675,0.4687,0.469,0.4649,0.4647,0.4645,0.4635,0.4638,0,0,0,0,0,0.4056,0.41,0.4175,0.4212,0.4237,0.4299,0.4328,0.4362,0.4417,0.4438,0.4489,0.4541,0.459,0.462,0.4669,0.4714,0.4731,0.473,0.4727,0.4725,0.4728,0.4754,0.4754,0.4754,0.4754,0.4754,0,0,0.4045,0.4099,0.4123,0.4203,0.4246,0.4289,0.4317,0.4362,0.4394,0.4445,0.4498,0.4536,0.4598,0.4647,0.4671,0.4679,0.4731,0.4726,0.4723,0.4728,0.4755,0.4755,0.4754,0.4755,0.4755,0.4754,0,0,0.4046,0.4091,0.4127,0.4169,0.4234,0.4275,0.4284,0.4357,0.4384,0.4438,0.4477,0.4516,0.4598,0.464,0.4673,0.4688,0.4716,0.4702,0.4691,0.4715,0.4715,0.4716,0.4721,0.4722,0.4704,0.4704,0.4704,0,0.4023,0.409,0.4142,0.4184,0.4218,0.4266,0.4302,0.4341,0.4418,0.444,0.4448,0.4551,0.4596,0.4655,0.4659,0.4683,0.4694,0.4694,0.4711,0.4712,0.4713,0.4719,0.472,0.4702,0.4702,0.4702,0.4703,0,0.4059,0.4104,0.4125,0.4198,0.4235,0.4273,0.4331,0.4361,0.4391,0.4431,0.4484,0.454,0.46,0.4616,0.4646,0.468,0.4682,0.47,0.4713,0.471,0.4716,0.4719,0.4699,0.47,0.47,0.4701,0,0,0.4031,0.4131,0.4138,0.4172,0.4246,0.4282,0.4323,0.4381,0.4406,0.4457,0.4493,0.456,0.4576,0.4613,0.4648,0.4669,0.4677,0.4684,0.4686,0.4681,0.4717,0.4703,0.4705,0.4696,0.4696,0.4697,0.4711,0,0.4042,0.4118,0.4165,0.4221,0.4264,0.4309,0.4344,0.4393,0.4432,0.4473,0.4515,0.4562,0.458,0.4602,0.4625,0.4671,0.4685,0.4671,0.4729,0.4731,0.4713,0.4709,0.4695,0.4706,0.4714,0.4715,0.4715,0,0.4066,0.4116,0.4176,0.4245,0.4265,0.4296,0.4353,0.4392,0.4448,0.4474,0.4514,0.4549,0.4593,0.4602,0.4663,0.4652,0.4679,0.4705,0.4706,0.4714,0.4723,0.4716,0.4711,0.4713,0.472,0.4719,0.4719,0,0.404,0.4122,0.4169,0.4196,0.4277,0.4298,0.4333,0.4389,0.4421,0.447,0.4492,0.4545,0.4575,0.4616,0.4664,0.4666,0.472,0.4734,0.4743,0.4742,0.4754,0.4752,0.4753,0.477,0.477,0.477,0.477,0,0.4048,0.4083,0.4158,0.4187,0.4227,0.428,0.4319,0.4357,0.4406,0.4443,0.4485,0.4519,0.458,0.4621,0.4659,0.4704,0.4717,0.4739,0.4749,0.4736,0.4733,0.4754,0.4755,0.477,0.477,0.477,0.477,0,0.4026,0.4077,0.4131,0.4204,0.4222,0.4249,0.4311,0.434,0.438,0.4426,0.4439,0.4502,0.4552,0.4604,0.4672,0.4697,0.4741,0.4754,0.4722,0.4727,0.4734,0.4733,0.4749,0.4754,0.4766,0.4766,0.4766,0,0.4028,0.4056,0.4131,0.4159,0.4193,0.4236,0.4269,0.4322,0.4354,0.4419,0.4441,0.4494,0.4539,0.4617,0.4668,0.472,0.4735,0.4737,0.4743,0.4729,0.4735,0.4733,0.4736,0.4735,0.4735,0.4734,0.4734,0,0.4026,0.405,0.4095,0.4149,0.4187,0.4232,0.4279,0.4299,0.4361,0.4395,0.4446,0.4481,0.455,0.4602,0.466,0.4695,0.4725,0.4731,0.4736,0.4724,0.4704,0.4714,0.4716,0.4731,0.4731,0.4732,0.4732,0.4732,0.4017,0.4044,0.41,0.4149,0.419,0.4232,0.4263,0.4306,0.435,0.441,0.4439,0.449,0.4545,0.4625,0.466,0.47,0.4709,0.4716,0.4718,0.4719,0.4716,0.4696,0.4711,0.4711,0.4711,0.4712,0.4712,0,0.4017,0.4056,0.41,0.4164,0.4202,0.4226,0.4278,0.4309,0.4354,0.4402,0.4445,0.4504,0.4554,0.4609,0.4662,0.4684,0.4699,0.4696,0.4696,0.4703,0.4705,0.4696,0.4683,0.4683,0.4683,0.4683,0.4683,0.4683,0.4022,0.4069,0.4099,0.4165,0.4204,0.4255,0.4282,0.4321,0.436,0.4424,0.4465,0.4501,0.4551,0.4608,0.4655,0.467,0.4688,0.4681,0.47,0.4701,0.4703,0.4705,0.4696,0.4685,0.4685,0.4694,0.4694,0.4695]},{"header":{"parameterUnit":"m.s-1","parameterCategory":1,"la1":30.2991,"la2":30.254,"lo1":-89.0895,"lo2":-89.0444,"dy":0.0017,"dx":0.0017,"nx":28,"ny":28,"refTime":"2025-04-25T03:00:00:Z","depth":0,"parameterNumber":3,"parameterNumberName":"V-component_of_WINDS"},"data":[0,0,0,0,0,0,0,0,0,0,0,0,0,0,0,0,0,0,0,0,0,0,0,0,0,0,0,0,0,0,0,0,0,0,0,0,0,0,0,0,0,0,0,0,0,0,0,0,0,0,0,0,0,0,0,0,0,0,3.0433,3.0433,0,3.0409,3.0409,3.0408,3.0383,3.0383,3.0383,3.0382,3.0356,3.0355,3.0355,0,0,0,0,0,0,0,0,0,0,0,0,0,3.0457,3.0457,3.0433,3.0433,3.0433,3.0409,3.0409,3.0408,3.0383,3.0383,3.0383,3.0382,3.0356,3.0355,3.0355,0,0,0,0,0,0,0,0,0,0,0,0,0,3.0441,3.0457,3.0433,3.0418,3.0416,3.0409,3.0409,3.0408,3.0383,3.0383,3.0382,3.0382,3.0356,3.0355,3.0355,3.0361,0,0,3.0353,3.0353,0,0,0,0,0,0,0,0,3.0442,3.044,3.042,3.0419,3.0417,3.0399,3.0407,3.0392,3.0384,3.0396,3.0382,3.0382,3.037,3.0368,3.0365,3.036,3.0359,3.0353,3.0353,3.0352,3.0352,0,0,0,0,0,0,0,3.0443,3.0441,3.0424,3.042,3.0418,3.0411,3.0408,3.0404,3.0386,3.0395,3.0393,3.039,3.0369,3.0366,3.0364,3.0358,3.0353,3.0352,3.0352,3.0352,3.0358,3.0358,0,0,0,0,0,0,3.0447,3.0442,3.0424,3.0423,3.0429,3.0411,3.0408,3.0405,3.0386,3.0383,3.0391,3.0389,3.0367,3.0365,3.0363,3.037,3.0352,3.0352,3.0351,3.0357,3.0358,3.0358,0,0,0,0,0,0,3.0448,3.0446,3.0425,3.0432,3.0429,3.0411,3.0408,3.0405,3.0401,3.0383,3.038,3.0391,3.0366,3.0364,3.0362,3.0368,3.0351,3.0351,3.0357,3.0357,3.0358,3.0383,0,0,0,0,0,0,3.0449,3.0446,3.0449,3.0432,3.0429,3.0425,3.0408,3.0405,3.04,3.0398,3.0382,3.0379,3.0366,3.0363,3.0361,3.0367,3.035,3.0356,3.0357,3.0358,3.0381,3.0384,3.0387,0,0,0,0,0,3.0449,3.0456,3.0449,3.0447,3.0432,3.0426,3.0424,3.0409,3.0401,3.0403,3.0392,3.0379,3.0368,3.0363,3.0361,3.0367,3.0355,3.0357,3.0358,3.038,3.0384,3.0387,0,0,0,0,0,0,3.0473,3.0454,3.0445,3.0447,3.0438,3.0421,3.0424,3.0413,3.0406,3.0404,3.0386,3.0382,3.0383,3.0374,3.0369,3.0372,3.036,3.0361,3.0378,3.0381,3.0384,3.0386,3.035,0,0,0,0,0,3.0478,3.0476,3.0459,3.0462,3.0458,3.0442,3.0438,3.0428,3.0418,3.0414,3.0402,3.0392,3.0387,3.0383,3.0377,3.038,3.0376,3.0383,3.0386,3.0388,3.0389,3.039,3.0393,3.0362,3.0362,3.0362,0,0,3.0489,3.0479,3.0478,3.0466,3.0458,3.0455,3.0439,3.0436,3.0434,3.0413,3.0411,3.0402,3.039,3.0391,3.0391,3.0384,3.0397,3.0389,3.0391,3.0391,3.0392,3.0395,3.0397,3.0363,3.0363,3.0363,0,0,3.0508,3.05,3.0502,3.0494,3.0482,3.0472,3.0472,3.0457,3.0451,3.0448,3.0433,3.0429,3.042,3.0412,3.0407,3.0423,3.0411,3.0421,3.0436,3.0437,3.044,3.0442,3.0448,3.0451,3.0422,3.0422,3.0422,0,3.0523,3.0519,3.0504,3.0503,3.0498,3.048,3.0482,3.0475,3.0461,3.0458,3.0451,3.0439,3.043,3.0429,3.0433,3.0429,3.0429,3.0423,3.0441,3.0443,3.0444,3.045,3.0453,3.0424,3.0424,3.0423,3.0423,0,3.0538,3.0535,3.0538,3.0527,3.0522,3.0522,3.0507,3.0504,3.0494,3.0485,3.0482,3.047,3.0462,3.046,3.045,3.0458,3.0454,3.0444,3.0432,3.0449,3.0454,3.0456,3.0426,3.0425,3.0425,3.0424,0,0,3.0571,3.0551,3.0553,3.0547,3.0533,3.0531,3.053,3.0522,3.052,3.0511,3.0511,3.0503,3.0494,3.0488,3.0477,3.0478,3.0492,3.0468,3.0467,3.0473,3.0501,3.0509,3.0511,3.0485,3.0485,3.0485,3.0502,0,3.0588,3.0586,3.0573,3.0575,3.0572,3.0555,3.0554,3.0546,3.0536,3.0532,3.0522,3.0517,3.0505,3.0501,3.0502,3.0491,3.0498,3.0489,3.0483,3.0483,3.0488,3.0514,3.0522,3.0538,3.0504,3.0504,3.0504,0,3.0607,3.06,3.0602,3.0589,3.0587,3.0587,3.0579,3.0575,3.0565,3.0558,3.0552,3.0539,3.0537,3.0526,3.0523,3.0517,3.0514,3.0508,3.0509,3.0508,3.0495,3.0514,3.0543,3.0546,3.0507,3.0507,3.0507,0,3.0631,3.0622,3.0623,3.0619,3.0602,3.0603,3.0596,3.0585,3.0582,3.0574,3.0572,3.0564,3.056,3.0554,3.054,3.0532,3.0539,3.0526,3.0533,3.0534,3.0535,3.0536,3.0565,3.0533,3.0533,3.0533,3.0533,0,3.0651,3.0653,3.0633,3.0634,3.0636,3.062,3.0622,3.0613,3.0604,3.0602,3.0587,3.0585,3.0566,3.0563,3.0552,3.0551,3.0549,3.0544,3.0541,3.0545,3.0546,3.0543,3.0542,3.0533,3.0533,3.0533,3.0533,0,3.0678,3.0665,3.0665,3.065,3.0646,3.0648,3.0635,3.0635,3.0625,3.0622,3.0621,3.0605,3.06,3.0585,3.0576,3.0569,3.0572,3.0566,3.0576,3.0574,3.0582,3.0582,3.0611,3.0614,3.058,3.058,3.058,0,3.0692,3.0693,3.0679,3.0677,3.0671,3.0668,3.0664,3.0649,3.0646,3.0634,3.0635,3.0629,3.0623,3.0616,3.0603,3.0596,3.059,3.0601,3.0589,3.0594,3.0591,3.0592,3.0592,3.0604,3.0604,3.0605,3.0605,0,3.0718,3.0712,3.0707,3.0701,3.0697,3.0691,3.0684,3.0683,3.0666,3.0663,3.0658,3.0654,3.0645,3.0639,3.063,3.0623,3.0611,3.0609,3.061,3.0615,3.0621,3.0618,3.0583,3.0608,3.0608,3.0608,3.0607,3.0607,3.0739,3.074,3.073,3.0726,3.0719,3.0713,3.0712,3.0703,3.0698,3.0691,3.0681,3.0678,3.0667,3.0655,3.0648,3.0645,3.0638,3.064,3.0641,3.0642,3.0644,3.0621,3.0643,3.0643,3.0643,3.0643,3.0642,0,3.0765,3.0758,3.0755,3.0746,3.0742,3.0732,3.0724,3.0722,3.0719,3.0711,3.0706,3.07,3.0694,3.0682,3.0675,3.0675,3.0669,3.0673,3.0673,3.0672,3.065,3.065,3.0678,3.0678,3.0678,3.0678,3.0678,3.0678,3.0778,3.0779,3.0772,3.0769,3.0762,3.0758,3.0755,3.0749,3.0743,3.0737,3.0733,3.0725,3.0715,3.0707,3.0702,3.0698,3.0696,3.0703,3.0697,3.0677,3.0674,3.067,3.067,3.0702,3.0702,3.072,3.072,3.072]}]]